| time (UTC) | temp C | wind direction | speed KPH | gust KPH | rain 1hr cm | rain 24hr cm | rain mn cm | humidity % | barometer mb |
| 20260504100238 | 0 | 276 | 0.0 | 0.0 | 0.00 | 0.00 | 0.00 | 99 | 1008.0 |
| 20260504081738 | 1 | 274 | 0.0 | 0.0 | 0.00 | 0.00 | 0.00 | 99 | 1008.0 |
| 20260504081238 | 1 | 275 | 0.0 | 0.0 | 0.00 | 0.00 | 0.00 | 99 | 1008.0 |
| 20260504080737 | 1 | 275 | 0.0 | 0.0 | 0.00 | 0.00 | 0.00 | 99 | 1008.0 |
| 20260504080237 | 1 | 270 | 0.0 | 0.0 | 0.00 | 0.00 | 0.00 | 99 | 1008.0 |
| 20260504070237 | 2 | 263 | 0.0 | 0.0 | 0.00 | 0.00 | 0.00 | 98 | 1008.0 |
| 20260504060238 | 3 | 271 | 0.0 | 0.0 | 0.00 | 0.00 | 0.00 | 92 | 1008.0 |
| 20260504050737 | 5 | 273 | 0.0 | 0.0 | 0.00 | 0.00 | 0.00 | 81 | 1008.0 |
| 20260504050237 | 5 | 272 | 0.0 | 0.0 | 0.00 | 0.00 | 0.00 | 82 | 1008.0 |
| 20260504045738 | 5 | 271 | 0.0 | 0.0 | 0.00 | 0.00 | 0.00 | 82 | 1008.0 |
| 20260504045238 | 5 | 272 | 0.0 | 0.0 | 0.00 | 0.00 | 0.00 | 81 | 1008.0 |
| 20260504044737 | 5 | 270 | 0.0 | 0.0 | 0.00 | 0.00 | 0.00 | 80 | 1008.0 |
| 20260504044237 | 6 | 271 | 0.0 | 0.0 | 0.00 | 0.00 | 0.00 | 78 | 1008.0 |
| 20260504043737 | 6 | 271 | 0.0 | 0.0 | 0.00 | 0.00 | 0.00 | 78 | 1008.0 |
| 20260504043239 | 6 | 274 | 0.0 | 0.0 | 0.00 | 0.00 | 0.00 | 77 | 1008.0 |
| 20260504042737 | 6 | 273 | 0.0 | 0.0 | 0.00 | 0.00 | 0.00 | 77 | 1008.0 |
| 20260504042238 | 6 | 280 | 0.0 | 0.0 | 0.00 | 0.00 | 0.00 | 75 | 1008.0 |
| 20260504041738 | 6 | 276 | 0.0 | 0.0 | 0.00 | 0.00 | 0.00 | 76 | 1008.0 |
| 20260504041237 | 6 | 270 | 0.0 | 0.0 | 0.00 | 0.00 | 0.00 | 78 | 1008.0 |
| 20260504040737 | 7 | 274 | 0.0 | 0.0 | 0.00 | 0.00 | 0.00 | 75 | 1008.0 |
| 20260504040247 | 7 | 276 | 0.0 | 0.0 | 0.00 | 0.00 | 0.00 | 74 | 1008.0 |
| 20260504035737 | 7 | 274 | 0.0 | 0.0 | 0.00 | 0.00 | 0.00 | 73 | 1008.0 |
| 20260504035238 | 7 | 277 | 0.0 | 0.0 | 0.00 | 0.00 | 0.00 | 73 | 1008.0 |
| 20260504034737 | 8 | 272 | 0.0 | 0.0 | 0.00 | 0.00 | 0.00 | 72 | 1008.0 |
| 20260504034237 | 8 | 272 | 0.0 | 0.0 | 0.00 | 0.00 | 0.00 | 73 | 1008.0 |
| 20260504033739 | 8 | 274 | 0.0 | 0.0 | 0.00 | 0.00 | 0.00 | 68 | 1008.0 |
| 20260504033237 | 8 | 274 | 0.0 | 0.0 | 0.00 | 0.00 | 0.00 | 68 | 1008.0 |
| 20260504032737 | 9 | 275 | 0.0 | 0.0 | 0.00 | 0.00 | 0.00 | 69 | 1008.0 |
| 20260504032237 | 9 | 269 | 0.0 | 0.0 | 0.00 | 0.00 | 0.00 | 69 | 1008.0 |
| 20260504031738 | 10 | 271 | 0.0 | 0.0 | 0.00 | 0.00 | 0.00 | 69 | 1008.0 |
| 20260504031237 | 10 | 270 | 0.0 | 0.0 | 0.00 | 0.00 | 0.00 | 65 | 1008.0 |
| 20260504030737 | 10 | 270 | 0.0 | 0.0 | 0.00 | 0.00 | 0.00 | 63 | 1008.0 |
| 20260504030237 | 11 | 261 | 0.0 | 1.6 | 0.00 | 0.00 | 0.00 | 62 | 1008.0 |
| 20260504025313 | 11 | 273 | 0.0 | 0.0 | 0.00 | 0.00 | 0.00 | 58 | 1008.0 |
| 20260504024739 | 12 | 267 | 0.0 | 0.0 | 0.00 | 0.00 | 0.00 | 58 | 1008.0 |
| 20260504024237 | 13 | 273 | 0.0 | 0.0 | 0.00 | 0.00 | 0.00 | 55 | 1008.0 |
| 20260504023737 | 13 | 279 | 0.0 | 0.0 | 0.00 | 0.00 | 0.00 | 48 | 1008.0 |
| 20260504023237 | 13 | 303 | 3.2 | 3.2 | 0.00 | 0.00 | 0.00 | 49 | 1008.0 |
| 20260504022738 | 14 | 276 | 0.0 | 4.8 | 0.00 | 0.00 | 0.00 | 46 | 1008.0 |
| 20260504022237 | 13 | 318 | 3.2 | 3.2 | 0.00 | 0.00 | 0.00 | 52 | 1008.0 |
| 20260504021738 | 14 | 271 | 0.0 | 0.0 | 0.00 | 0.00 | 0.00 | 51 | 1008.0 |
| 20260504021238 | 15 | 272 | 0.0 | 0.0 | 0.00 | 0.00 | 0.00 | 50 | 1008.0 |
| 20260504020737 | 15 | 225 | 1.6 | 1.6 | 0.00 | 0.00 | 0.00 | 45 | 1008.0 |
| 20260504020237 | 15 | 260 | 0.0 | 0.0 | 0.00 | 0.00 | 0.00 | 48 | 1008.0 |
| 20260504015737 | 15 | 275 | 1.6 | 3.2 | 0.00 | 0.00 | 0.00 | 44 | 1008.0 |
| 20260504015238 | 16 | 286 | 0.0 | 1.6 | 0.00 | 0.00 | 0.00 | 44 | 1008.0 |
| 20260504014737 | 16 | 270 | 8.0 | 9.7 | 0.00 | 0.00 | 0.00 | 42 | 1008.0 |
| 20260504014237 | 16 | 279 | 1.6 | 1.6 | 0.00 | 0.00 | 0.00 | 43 | 1008.0 |
| 20260504013737 | 16 | 318 | 3.2 | 3.2 | 0.00 | 0.00 | 0.00 | 43 | 1008.0 |
| 20260504013237 | 16 | 271 | 1.6 | 3.2 | 0.00 | 0.00 | 0.00 | 41 | 1008.0 |
| 20260504012737 | 16 | 296 | 1.6 | 1.6 | 0.00 | 0.00 | 0.00 | 43 | 1008.0 |
| 20260504012237 | 16 | 280 | 0.0 | 1.6 | 0.00 | 0.00 | 0.00 | 42 | 1008.0 |
| 20260504011737 | 17 | 287 | 1.6 | 1.6 | 0.00 | 0.00 | 0.00 | 42 | 1008.0 |
| 20260504011238 | 17 | 315 | 1.6 | 1.6 | 0.00 | 0.00 | 0.00 | 40 | 1008.0 |
| 20260504010737 | 17 | 310 | 1.6 | 1.6 | 0.00 | 0.00 | 0.00 | 41 | 1008.0 |
| 20260504010237 | 18 | 284 | 0.0 | 1.6 | 0.00 | 0.00 | 0.00 | 39 | 1008.0 |
| 20260504005737 | 18 | 282 | 3.2 | 4.8 | 0.00 | 0.00 | 0.00 | 39 | 1008.0 |
| 20260504005237 | 18 | 307 | 1.6 | 1.6 | 0.00 | 0.00 | 0.00 | 40 | 1008.0 |
| 20260504004737 | 18 | 320 | 3.2 | 4.8 | 0.00 | 0.00 | 0.00 | 38 | 1008.0 |
| 20260504004237 | 19 | 266 | 1.6 | 1.6 | 0.00 | 0.00 | 0.00 | 38 | 1008.0 |
| 20260504003737 | 18 | 345 | 6.4 | 8.0 | 0.00 | 0.00 | 0.00 | 38 | 1008.0 |
| 20260504003238 | 19 | 271 | 0.0 | 1.6 | 0.00 | 0.00 | 0.00 | 39 | 1008.0 |
| 20260504002737 | 20 | 342 | 3.2 | 8.0 | 0.00 | 0.00 | 0.00 | 38 | 1008.0 |
| 20260504002238 | 21 | 261 | 0.0 | 1.6 | 0.00 | 0.00 | 0.00 | 37 | 1008.0 |
| 20260504001737 | 21 | 272 | 0.0 | 1.6 | 0.00 | 0.00 | 0.00 | 37 | 1008.0 |
| 20260504001238 | 21 | 251 | 1.6 | 3.2 | 0.00 | 0.00 | 0.00 | 37 | 1008.0 |
| 20260504000737 | 21 | 280 | 0.0 | 0.0 | 0.00 | 0.00 | 0.00 | 39 | 1008.0 |
| 20260504000238 | 21 | 307 | 0.0 | 0.0 | 0.00 | 0.00 | 0.00 | 37 | 1008.0 |
| 20260503235737 | 21 | 275 | 0.0 | 0.0 | 0.00 | 0.00 | 0.00 | 39 | 1008.0 |
| 20260503235238 | 21 | 258 | 0.0 | 0.0 | 0.00 | 0.00 | 0.00 | 38 | 1008.0 |
| 20260503234737 | 21 | 272 | 0.0 | 0.0 | 0.00 | 0.00 | 0.00 | 39 | 1008.0 |
| 20260503234237 | 20 | 309 | 3.2 | 4.8 | 0.00 | 0.00 | 0.00 | 41 | 1008.0 |
| 20260503233737 | 20 | 333 | 3.2 | 3.2 | 0.00 | 0.00 | 0.00 | 38 | 1009.0 |
| 20260503233238 | 20 | 320 | 4.8 | 6.4 | 0.00 | 0.00 | 0.00 | 38 | 1009.0 |
| 20260503232738 | 21 | 302 | 1.6 | 6.4 | 0.00 | 0.00 | 0.00 | 37 | 1009.0 |
| 20260503232238 | 21 | 289 | 1.6 | 3.2 | 0.00 | 0.00 | 0.00 | 38 | 1009.0 |
| 20260503231738 | 21 | 277 | 1.6 | 1.6 | 0.00 | 0.00 | 0.00 | 39 | 1009.0 |
| 20260503231238 | 22 | 270 | 0.0 | 1.6 | 0.00 | 0.00 | 0.00 | 35 | 1009.0 |
| 20260503230737 | 22 | 337 | 3.2 | 3.2 | 0.00 | 0.00 | 0.00 | 38 | 1009.0 |
| 20260503230237 | 21 | 252 | 1.6 | 1.6 | 0.00 | 0.00 | 0.00 | 35 | 1009.0 |
| 20260503225737 | 21 | 293 | 1.6 | 1.6 | 0.00 | 0.00 | 0.00 | 38 | 1009.0 |
| 20260503225238 | 21 | 247 | 3.2 | 4.8 | 0.00 | 0.00 | 0.00 | 34 | 1009.0 |
| 20260503224739 | 21 | 272 | 1.6 | 1.6 | 0.00 | 0.00 | 0.00 | 39 | 1009.0 |
| 20260503224237 | 21 | 304 | 0.0 | 1.6 | 0.00 | 0.00 | 0.00 | 36 | 1009.0 |
| 20260503223737 | 20 | 274 | 1.6 | 4.8 | 0.00 | 0.00 | 0.00 | 35 | 1009.0 |
| 20260503223237 | 21 | 285 | 3.2 | 4.8 | 0.00 | 0.00 | 0.00 | 35 | 1009.0 |
| 20260503222743 | 21 | 262 | 3.2 | 6.4 | 0.00 | 0.00 | 0.00 | 36 | 1009.0 |
| 20260503222237 | 23 | 282 | 3.2 | 3.2 | 0.00 | 0.00 | 0.00 | 36 | 1009.0 |
| 20260503221737 | 22 | 296 | 1.6 | 3.2 | 0.00 | 0.00 | 0.00 | 34 | 1009.0 |
| 20260503221238 | 21 | 273 | 1.6 | 1.6 | 0.00 | 0.00 | 0.00 | 35 | 1009.0 |
| 20260503220738 | 21 | 173 | 6.4 | 6.4 | 0.00 | 0.00 | 0.00 | 36 | 1009.0 |
| 20260503220237 | 20 | 177 | 4.8 | 8.0 | 0.00 | 0.00 | 0.00 | 39 | 1009.0 |
| 20260503215738 | 20 | 173 | 6.4 | 9.7 | 0.00 | 0.00 | 0.00 | 37 | 1009.0 |
| 20260503215237 | 20 | 235 | 9.7 | 11.3 | 0.00 | 0.00 | 0.00 | 39 | 1009.0 |
| 20260503214738 | 21 | 180 | 0.0 | 0.0 | 0.00 | 0.00 | 0.00 | 35 | 1009.0 |
| 20260503214237 | 21 | 174 | 4.8 | 4.8 | 0.00 | 0.00 | 0.00 | 35 | 1009.0 |
| 20260503213737 | 20 | 200 | 8.0 | 16.1 | 0.00 | 0.00 | 0.00 | 35 | 1009.0 |
| 20260503213238 | 21 | 256 | 3.2 | 3.2 | 0.00 | 0.00 | 0.00 | 37 | 1009.0 |
| 20260503212737 | 20 | 176 | 6.4 | 6.4 | 0.00 | 0.00 | 0.00 | 39 | 1009.0 |
| 20260503212237 | 21 | 353 | 3.2 | 3.2 | 0.00 | 0.00 | 0.00 | 36 | 1009.0 |
| 20260503211737 | 20 | 165 | 6.4 | 6.4 | 0.00 | 0.00 | 0.00 | 36 | 1009.0 |
| 20260503211237 | 21 | 283 | 3.2 | 4.8 | 0.00 | 0.00 | 0.00 | 37 | 1009.0 |
| 20260503210738 | 21 | 180 | 3.2 | 3.2 | 0.00 | 0.00 | 0.00 | 36 | 1009.0 |
| 20260503210237 | 20 | 264 | 3.2 | 3.2 | 0.00 | 0.00 | 0.00 | 37 | 1009.0 |
| 20260503205737 | 21 | 21 | 1.6 | 3.2 | 0.00 | 0.00 | 0.00 | 38 | 1009.0 |
| 20260503205237 | 19 | 349 | 1.6 | 3.2 | 0.00 | 0.00 | 0.00 | 41 | 1009.0 |
| 20260503204737 | 20 | 339 | 1.6 | 1.6 | 0.00 | 0.00 | 0.00 | 41 | 1009.0 |
| 20260503204237 | 20 | 359 | 3.2 | 4.8 | 0.00 | 0.00 | 0.00 | 40 | 1009.0 |
| 20260503203737 | 19 | 201 | 4.8 | 4.8 | 0.00 | 0.00 | 0.00 | 39 | 1009.0 |
| 20260503203238 | 19 | 291 | 1.6 | 1.6 | 0.00 | 0.00 | 0.00 | 41 | 1009.0 |
| 20260503202737 | 18 | 195 | 6.4 | 8.0 | 0.00 | 0.00 | 0.00 | 40 | 1009.0 |
| 20260503202240 | 18 | 223 | 4.8 | 6.4 | 0.00 | 0.00 | 0.00 | 40 | 1009.0 |
| 20260503201737 | 18 | 219 | 8.0 | 11.3 | 0.00 | 0.00 | 0.00 | 39 | 1009.0 |
| 20260503201237 | 18 | 204 | 6.4 | 8.0 | 0.00 | 0.00 | 0.00 | 40 | 1009.0 |
| 20260503200737 | 17 | 174 | 3.2 | 4.8 | 0.00 | 0.00 | 0.00 | 42 | 1009.0 |
| 20260503200237 | 18 | 226 | 8.0 | 9.7 | 0.00 | 0.00 | 0.00 | 40 | 1009.0 |
| 20260503195738 | 20 | 204 | 0.0 | 4.8 | 0.00 | 0.00 | 0.00 | 40 | 1009.0 |
| 20260503195237 | 18 | 238 | 4.8 | 4.8 | 0.00 | 0.00 | 0.00 | 38 | 1009.0 |
| 20260503194737 | 17 | 171 | 4.8 | 6.4 | 0.00 | 0.00 | 0.00 | 41 | 1010.0 |
| 20260503194237 | 17 | 213 | 4.8 | 6.4 | 0.00 | 0.00 | 0.00 | 43 | 1010.0 |
| 20260503193737 | 18 | 242 | 1.6 | 1.6 | 0.00 | 0.00 | 0.00 | 42 | 1010.0 |
| 20260503193237 | 17 | 187 | 8.0 | 9.7 | 0.00 | 0.00 | 0.00 | 42 | 1009.0 |
| 20260503192737 | 18 | 192 | 4.8 | 6.4 | 0.00 | 0.00 | 0.00 | 42 | 1009.0 |
| 20260503192238 | 19 | 240 | 1.6 | 1.6 | 0.00 | 0.00 | 0.00 | 42 | 1010.0 |
| 20260503191737 | 18 | 262 | 3.2 | 4.8 | 0.00 | 0.00 | 0.00 | 43 | 1010.0 |
| 20260503191237 | 17 | 276 | 1.6 | 3.2 | 0.00 | 0.00 | 0.00 | 45 | 1009.0 |
| 20260503190738 | 17 | 271 | 1.6 | 1.6 | 0.00 | 0.00 | 0.00 | 48 | 1009.0 |
| 20260503190238 | 16 | 177 | 6.4 | 12.9 | 0.00 | 0.00 | 0.00 | 47 | 1009.0 |
| 20260503185737 | 16 | 175 | 3.2 | 4.8 | 0.00 | 0.00 | 0.00 | 47 | 1010.0 |
| 20260503185237 | 16 | 180 | 6.4 | 11.3 | 0.00 | 0.00 | 0.00 | 44 | 1010.0 |
| 20260503184737 | 16 | 245 | 4.8 | 4.8 | 0.00 | 0.00 | 0.00 | 44 | 1010.0 |
| 20260503184237 | 17 | 209 | 3.2 | 6.4 | 0.00 | 0.00 | 0.00 | 43 | 1010.0 |
| 20260503183737 | 18 | 325 | 1.6 | 1.6 | 0.00 | 0.00 | 0.00 | 44 | 1010.0 |
| 20260503183237 | 18 | 274 | 1.6 | 1.6 | 0.00 | 0.00 | 0.00 | 43 | 1010.0 |
| 20260503182738 | 17 | 273 | 1.6 | 4.8 | 0.00 | 0.00 | 0.00 | 44 | 1010.0 |
| 20260503182237 | 17 | 319 | 1.6 | 4.8 | 0.00 | 0.00 | 0.00 | 45 | 1010.0 |
| 20260503181737 | 17 | 297 | 1.6 | 1.6 | 0.00 | 0.00 | 0.00 | 41 | 1010.0 |
| 20260503181239 | 17 | 275 | 1.6 | 3.2 | 0.00 | 0.00 | 0.00 | 44 | 1010.0 |
| 20260503180737 | 17 | 286 | 6.4 | 6.4 | 0.00 | 0.00 | 0.00 | 43 | 1010.0 |
| 20260503180237 | 17 | 263 | 3.2 | 3.2 | 0.00 | 0.00 | 0.00 | 43 | 1010.0 |
| 20260503175739 | 17 | 263 | 1.6 | 1.6 | 0.00 | 0.00 | 0.00 | 44 | 1010.0 |
| 20260503175237 | 16 | 282 | 1.6 | 1.6 | 0.00 | 0.00 | 0.00 | 43 | 1010.0 |
| 20260503174737 | 16 | 241 | 1.6 | 1.6 | 0.00 | 0.00 | 0.00 | 50 | 1010.0 |
| 20260503174238 | 15 | 241 | 6.4 | 8.0 | 0.00 | 0.00 | 0.00 | 48 | 1010.0 |
| 20260503173738 | 14 | 184 | 6.4 | 8.0 | 0.00 | 0.00 | 0.00 | 49 | 1010.0 |
| 20260503173238 | 13 | 217 | 4.8 | 6.4 | 0.00 | 0.00 | 0.00 | 53 | 1010.0 |
| 20260503172738 | 13 | 258 | 4.8 | 6.4 | 0.00 | 0.00 | 0.00 | 54 | 1010.0 |
| 20260503172238 | 13 | 175 | 4.8 | 4.8 | 0.00 | 0.00 | 0.00 | 55 | 1010.0 |
| 20260503171738 | 13 | 221 | 3.2 | 3.2 | 0.00 | 0.00 | 0.00 | 56 | 1010.0 |
| 20260503171238 | 13 | 177 | 6.4 | 8.0 | 0.00 | 0.00 | 0.00 | 57 | 1010.0 |
| 20260503170738 | 12 | 206 | 1.6 | 3.2 | 0.00 | 0.00 | 0.00 | 60 | 1010.0 |
| 20260503170237 | 12 | 218 | 1.6 | 1.6 | 0.00 | 0.00 | 0.00 | 59 | 1010.0 |
| 20260503150737 | 4 | 270 | 0.0 | 0.0 | 0.00 | 0.00 | 0.00 | 87 | 1011.0 |
| 20260503150238 | 3 | 265 | 0.0 | 0.0 | 0.00 | 0.00 | 0.00 | 88 | 1011.0 |
| 20260503140238 | 1 | 270 | 0.0 | 0.0 | 0.00 | 0.00 | 0.00 | 98 | 1011.0 |
| 20260503131237 | -1 | 272 | 0.0 | 0.0 | 0.00 | 0.00 | 0.00 | 99 | 1011.0 |
| 20260503130738 | -1 | 271 | 0.0 | 0.0 | 0.00 | 0.00 | 0.00 | 99 | 1011.0 |
| 20260503130238 | -1 | 272 | 0.0 | 0.0 | 0.00 | 0.00 | 0.00 | 99 | 1011.0 |
| 20260503110737 | 0 | 270 | 0.0 | 0.0 | 0.00 | 0.00 | 0.00 | 99 | 1011.0 |
| 20260503110238 | 0 | 273 | 0.0 | 0.0 | 0.00 | 0.00 | 0.00 | 99 | 1011.0 |